User: anonymous   Login
Location: Laterina
(43.5167°N, 11.7167°E)
Time: 20:01:12
(UTC+00:00)
Language:

Meteor 2-5 Rocket - Orbit

View from above orbital plane
View from above orbital plane
View from above satellite
View from above satellite

Ground track
Ground track

The orbit data is extracted from the following two-line orbital elements,

1 11608U 79095B   20331.77674476 -.00000009 +00000-0 -12531-4 0  9990
2 11608 081.2154 069.6089 0053536 225.7210 133.9561 14.06165864106712
Epoch (UTC): 26 November 2020 18:38:30
Eccentricity: 0.0053536
inclination: 81.2154°
perigee height: 834 km
apogee height: 911 km
right ascension of ascending node: 69.6089°
argument of perigee: 225.7210°
revolutions per day: 14.06165864
mean anomaly at epoch: 133.9561°
orbit number at epoch: 10671

The dashed part of the orbit path shows where the satellite is in the earth's shadow,  

DLR